Location: Asheville, NC
(35.6000°N, 82.5500°W)
Time: 04:52:42
(UTC-04:00)

UWE-3 - Pass Details

Date: 11 February 2018
Orbit: 587 x 683 km, 97.6° (Epoch: 20 May)

Event Time Altitude Azimuth Distance (km) Brightness Sun altitude
Rises 19:03:55 0° 157° (SSE) 3,011 ? -11.9°
Reaches altitude 10° 19:06:09 10° 154° (SSE) 2,107 ? -12.3°
Maximum altitude 19:10:42 59° 75° (ENE) 786 ? -13.2°
Drops below altitude 10° 19:15:18 10° 357° (N) 2,129 ? -14.2°
Sets 19:17:34 0° 353° (N) 3,044 ? -14.6°
